Location: Unspecified
(58.9933°N, 5.6375°E)
Time: 20:51:59
(UTC+01:00)

Resurs 1-4 Rocket - Visible Passes

Search period start: 02 December 2016 00:00
Search period end: 12 December 2016 00:00
Orbit: 799 x 814 km, 98.5° (Epoch: 01 December)

Date Brightness Start Highest point End Pass type
(mag) Time Alt. Az. Time Alt. Az. Time Alt. Az.
02 Dec 4.5 04:00:02 10° NNE 04:00:57 15° NNE 04:00:57 15° NNE visible
02 Dec 4.0 05:40:31 10° N 05:42:02 16° NNW 05:42:02 16° NNW visible
03 Dec 4.7 03:35:27 10° NNE 03:36:03 13° NNE 03:36:03 13° NNE visible
03 Dec 4.1 05:15:45 10° N 05:17:07 17° N 05:17:07 17° N visible
03 Dec 4.1 06:57:24 10° NNW 06:58:12 11° NNW 06:58:12 11° NNW visible
04 Dec 4.9 03:10:55 10° NNE 03:11:08 11° NNE 03:11:08 11° NNE visible
04 Dec 4.2 04:51:01 10° N 04:52:12 16° N 04:52:12 16° N visible
04 Dec 4.1 06:32:02 10° N 06:33:17 13° NNW 06:33:17 13° NNW visible
05 Dec 4.4 04:26:20 10° NNE 04:27:18 15° N 04:27:18 15° N visible
05 Dec 4.0 06:07:03 10° N 06:08:23 14° NNW 06:08:23 14° NNW visible
06 Dec 4.6 04:01:41 10° NNE 04:02:23 14° NNE 04:02:23 14° NNE visible
06 Dec 4.1 05:42:12 10° N 05:43:28 15° N 05:43:28 15° N visible
07 Dec 4.8 03:37:06 10° NNE 03:37:28 12° NNE 03:37:28 12° NNE visible
07 Dec 4.2 05:17:25 10° N 05:18:34 15° N 05:18:34 15° N visible
07 Dec 4.2 06:59:11 10° NNW 06:59:38 10° NNW 06:59:38 10° NNW visible
08 Dec 5.0 03:12:34 10° NNE 03:12:35 10° NNE 03:12:35 10° NNE visible
08 Dec 4.3 04:52:41 10° N 04:53:39 15° N 04:53:39 15° N visible
08 Dec 4.1 06:33:44 10° N 06:34:44 12° NNW 06:34:44 12° NNW visible
09 Dec 4.5 04:27:59 10° NNE 04:28:45 14° N 04:28:45 14° N visible
09 Dec 4.1 06:08:44 10° N 06:09:50 13° NNW 06:09:50 13° NNW visible
10 Dec 4.6 04:03:21 10° NNE 04:03:52 13° NNE 04:03:52 13° NNE visible
10 Dec 4.1 05:43:52 10° N 05:44:56 14° N 05:44:56 14° N visible
11 Dec 4.8 03:38:45 10° NNE 03:38:58 11° NNE 03:38:58 11° NNE visible
11 Dec 4.2 05:19:04 10° N 05:20:02 14° N 05:20:02 14° N visible
11 Dec 4.2 07:01:00 10° NNW 07:01:07 10° NNW 07:01:07 10° NNW visible
